Weather in Istarawshan

Tajikistan     39°54′39″N   69°00′16″E
temp.,
°C
wind,
m/s
gust,
m/s
humid.,
%
clouds,
%
prec.,
mm/h
press.,
hPa
HPBL,
m
16 may, sun
sun1623:00+18ssw2239100 0.0 101111
02:00+17wsw33422 0.0 101140
05:00+15sw34480 0.0 101147
08:00+18wnw22410 0.0 1013272
11:00+23n32320 0.0 1012709
14:00+25nnw22250 0.0 10121157
17:00+26nnw21233 0.0 10111271
20:00+20e11360 0.0 101111
17 may, mon
mon1723:00+19se22360 0.0 101111
02:00+17sse11400 0.0 101111
05:00+17ssw22400 0.0 101211
08:00+23ene12290 0.0 1013294
11:00+28ene54200 0.0 10121443
14:00+29ne53163 0.0 10112997
17:00+28sse43193 0.3 1011838
20:00+23s462736 0.0 101174
18 may, tue
tue1823:00+21s33321 0.0 101027
02:00+20sse22342 0.0 100911
05:00+18sse22371 0.0 100911
08:00+25ese12280 0.0 1009254
11:00+29ne42180 0.0 10081992
14:00+30ene431830 0.2 10082798
17:00+29ese331993 0.5 1007968
20:00+22s131735100 0.0 1008305
19 may, wed
wed1923:00+23s8123037 0.0 1007179
02:00+21s610330 0.0 1007115
05:00+19s33370 0.0 100614
08:00+26sse12260 0.0 1007214
11:00+30nnw43140 0.0 10062331
14:00+31wnw54150 0.0 10062754
17:00+31wnw35136 0.0 10053847
20:00+24s793177 0.0 1007142
20 may, thu
thu2023:00+21s5936100 0.0 1007108
02:00+21s3332100 0.0 100718
05:00+20s333389 0.0 100816
08:00+26ssw2224100 0.0 1008180
11:00+28wsw1116100 0.0 10081344
14:00+27sw9722100 0.0 10091495
17:00+22s131434100 0.0 1010300
20:00+22s91332100 0.1 1011230